K8MUD Weather Reports


Display with metric or nautical units.
time (UTC)temp
F
wind
direction
speed
MPH
gust
MPH
rain 1hr
in
rain 24hr
in
rain mn
in
humidity
%
barometer
mb
20260903004237 91 241 1.0 5.0 0.00 0.00 0.00 59 1011.4
20260903004027 91 240 1.0 5.0 0.00 0.00 0.00 58 1011.3
20260903003707 92 247 2.0 6.0 0.00 0.00 0.00 58 1011.3
20260903003502 92 253 2.0 6.0 0.00 0.00 0.00 58 1011.3
20260903003207 92 260 2.0 6.0 0.00 0.00 0.00 58 1011.2
20260903003001 92 264 2.0 12.0 0.00 0.00 0.00 58 1011.3
20260903002707 92 271 2.0 12.0 0.00 0.00 0.00 57 1011.1
20260903002502 92 272 2.0 12.0 0.00 0.00 0.00 57 1011.1
20260903002207 92 280 1.0 12.0 0.00 0.00 0.00 57 1011.0
20260903002002 92 288 1.0 3.0 0.00 0.00 0.00 57 1011.0
20260903001707 92 286 2.0 6.0 0.00 0.00 0.00 56 1011.0
20260903001502 92 271 3.0 11.0 0.00 0.00 0.00 56 1011.1
20260903001207 92 267 3.0 11.0 0.00 0.00 0.00 56 1011.0
20260903001002 92 260 3.0 11.0 0.00 0.00 0.00 56 1011.0
20260903000707 93 254 4.0 11.0 0.00 0.00 0.00 55 1011.0
20260903000523 93 252 4.0 11.0 0.00 0.00 0.00 55 1011.1
20260903000207 93 258 5.0 15.0 0.00 0.00 0.00 55 1011.1
20260903000001 93 261 5.0 15.0 0.00 0.00 0.00 55 1011.1
20260902235707 93 264 6.0 15.0 0.00 0.00 0.00 54 1011.2
20260902235523 93 266 6.0 15.0 0.00 0.00 0.00 54 1011.2
20260902235207 93 262 6.0 14.0 0.00 0.00 0.00 54 1011.2
20260902235002 93 258 6.0 14.0 0.00 0.00 0.00 54 1011.2
20260902234706 94 257 6.0 14.0 0.00 0.00 0.00 53 1011.2
20260902234501 94 260 5.0 13.0 0.00 0.00 0.00 53 1011.3
20260902234206 94 259 5.0 13.0 0.00 0.00 0.00 53 1011.4
20260902234023 94 262 5.0 13.0 0.00 0.00 0.00 54 1011.3
20260902233706 94 260 5.0 13.0 0.00 0.00 0.00 55 1011.4
20260902233502 94 255 5.0 13.0 0.00 0.00 0.00 54 1011.4
20260902233206 94 254 5.0 13.0 0.00 0.00 0.00 53 1011.4
20260902233005 94 251 5.0 13.0 0.00 0.00 0.00 53 1011.3
20260902232706 94 255 6.0 16.0 0.00 0.00 0.00 53 1011.3
20260902232502 94 257 5.0 16.0 0.00 0.00 0.00 53 1011.3
20260902232206 94 262 5.0 16.0 0.00 0.00 0.00 53 1011.4
20260902232002 94 267 6.0 16.0 0.00 0.00 0.00 53 1011.4
20260902231706 94 267 5.0 13.0 0.00 0.00 0.00 52 1011.4
20260902231523 94 266 6.0 13.0 0.00 0.00 0.00 52 1011.5
20260902231206 94 267 6.0 13.0 0.00 0.00 0.00 52 1011.4
20260902231023 94 263 6.0 13.0 0.00 0.00 0.00 52 1011.3
20260902230706 94 260 6.0 13.0 0.00 0.00 0.00 52 1011.3
20260902230502 94 256 6.0 13.0 0.00 0.00 0.00 52 1011.2
20260902230206 94 250 6.0 16.0 0.00 0.00 0.00 51 1011.2
20260902230002 95 252 6.0 16.0 0.00 0.00 0.00 51 1011.2
20260902225706 95 248 5.0 16.0 0.00 0.00 0.00 51 1011.0
20260902225523 95 247 5.0 16.0 0.00 0.00 0.00 51 1011.1
20260902225205 95 245 5.0 14.0 0.00 0.00 0.00 51 1010.9
20260902225002 95 241 5.0 14.0 0.00 0.00 0.00 51 1011.0
20260902224705 95 246 6.0 14.0 0.00 0.00 0.00 51 1010.8
20260902224502 96 249 5.0 14.0 0.00 0.00 0.00 50 1010.6
20260902224205 96 258 6.0 12.0 0.00 0.00 0.00 50 1010.7
20260902224002 96 262 6.0 14.0 0.00 0.00 0.00 49 1010.7
20260902223705 96 264 7.0 16.0 0.00 0.00 0.00 49 1010.7
20260902223503 96 265 7.0 16.0 0.00 0.00 0.00 49 1010.8
20260902223205 96 264 6.0 16.0 0.00 0.00 0.00 48 1010.8
20260902223002 96 261 6.0 16.0 0.00 0.00 0.00 48 1010.8
20260902222705 96 250 5.0 13.0 0.00 0.00 0.00 49 1010.8
20260902222501 96 246 4.0 13.0 0.00 0.00 0.00 48 1010.9
20260902222205 97 240 4.0 13.0 0.00 0.00 0.00 48 1010.9
20260902222002 97 233 4.0 13.0 0.00 0.00 0.00 48 1010.9
20260902221705 97 236 4.0 9.0 0.00 0.00 0.00 49 1010.9
20260902221502 97 242 4.0 10.0 0.00 0.00 0.00 48 1010.8
20260902221205 97 250 5.0 10.0 0.00 0.00 0.00 48 1010.8
20260902221002 97 253 5.0 11.0 0.00 0.00 0.00 48 1010.8
20260902220705 97 258 5.0 14.0 0.00 0.00 0.00 48 1010.7
20260902220502 97 257 6.0 18.0 0.00 0.00 0.00 48 1010.8
20260902220205 97 255 8.0 18.0 0.00 0.00 0.00 48 1010.6
20260902220002 97 260 9.0 18.0 0.00 0.00 0.00 47 1010.8
20260902215705 97 264 9.0 20.0 0.00 0.00 0.00 47 1010.7
20260902215502 97 267 8.0 20.0 0.00 0.00 0.00 47 1010.8
20260902215205 97 270 8.0 20.0 0.00 0.00 0.00 46 1010.8
20260902215002 97 269 8.0 20.0 0.00 0.00 0.00 46 1010.8
20260902214705 97 269 8.0 22.0 0.00 0.00 0.00 46 1010.9
20260902214502 98 269 8.0 22.0 0.00 0.00 0.00 46 1011.0
20260902214205 98 266 8.0 22.0 0.00 0.00 0.00 46 1010.8
20260902214002 98 264 8.0 22.0 0.00 0.00 0.00 46 1010.8
20260902213704 98 263 8.0 19.0 0.00 0.00 0.00 46 1010.8
20260902213523 98 261 8.0 19.0 0.00 0.00 0.00 45 1010.9
20260902213204 98 262 9.0 19.0 0.00 0.00 0.00 46 1010.8
20260902213002 97 262 9.0 18.0 0.00 0.00 0.00 45 1010.8
20260902212704 97 255 9.0 19.0 0.00 0.00 0.00 45 1010.9
20260902212502 97 249 8.0 19.0 0.00 0.00 0.00 45 1010.9
20260902212204 97 244 7.0 19.0 0.00 0.00 0.00 45 1010.8
20260902212003 98 234 7.0 19.0 0.00 0.00 0.00 45 1010.8
20260902211704 98 228 7.0 14.0 0.00 0.00 0.00 45 1010.7
20260902211502 98 238 7.0 18.0 0.00 0.00 0.00 45 1010.8
20260902211204 98 231 7.0 18.0 0.00 0.00 0.00 45 1010.8
20260902211005 98 236 7.0 18.0 0.00 0.00 0.00 46 1010.7
20260902210704 98 251 7.0 20.0 0.00 0.00 0.00 46 1010.8
20260902210502 98 254 8.0 20.0 0.00 0.00 0.00 45 1010.8
20260902210204 98 264 10.0 20.0 0.00 0.00 0.00 46 1010.8
20260902210002 98 269 10.0 20.0 0.00 0.00 0.00 45 1010.7
20260902205704 98 265 10.0 20.0 0.00 0.00 0.00 46 1010.9
20260902205502 98 260 10.0 20.0 0.00 0.00 0.00 45 1010.8
20260902205204 98 260 8.0 16.0 0.00 0.00 0.00 45 1010.9
20260902205023 98 254 8.0 18.0 0.00 0.00 0.00 45 1010.9
20260902204704 98 249 6.0 18.0 0.00 0.00 0.00 45 1011.0
20260902204527 98 247 7.0 18.0 0.00 0.00 0.00 45 1011.0
20260902204204 98 245 8.0 18.0 0.00 0.00 0.00 45 1011.0
20260902204002 98 239 8.0 17.0 0.00 0.00 0.00 45 1011.0
20260902203703 97 241 7.0 17.0 0.00 0.00 0.00 45 1011.0
20260902203505 97 237 7.0 16.0 0.00 0.00 0.00 45 1011.1
20260902203203 98 221 5.0 14.0 0.00 0.00 0.00 45 1011.2
20260902203003 98 225 5.0 13.0 0.00 0.00 0.00 45 1011.2
20260902202703 98 235 6.0 13.0 0.00 0.00 0.00 45 1011.2
20260902202502 98 237 6.0 13.0 0.00 0.00 0.00 45 1011.2
20260902202203 98 234 6.0 13.0 0.00 0.00 0.00 45 1011.3
20260902202002 98 243 6.0 13.0 0.00 0.00 0.00 45 1011.2
20260902201703 98 245 7.0 18.0 0.00 0.00 0.00 45 1011.3
20260902201523 98 243 7.0 18.0 0.00 0.00 0.00 44 1011.4
20260902201203 99 250 8.0 18.0 0.00 0.00 0.00 44 1011.5
20260902201002 99 246 7.0 18.0 0.00 0.00 0.00 44 1011.5
20260902200703 99 248 7.0 16.0 0.00 0.00 0.00 43 1011.5
20260902200502 99 248 6.0 16.0 0.00 0.00 0.00 44 1011.4
20260902200203 99 254 5.0 16.0 0.00 0.00 0.00 44 1011.5
20260902200005 99 256 5.0 16.0 0.00 0.00 0.00 44 1011.6
20260902195703 99 253 6.0 15.0 0.00 0.00 0.00 45 1011.5
20260902195503 99 258 6.0 15.0 0.00 0.00 0.00 44 1011.6
20260902195203 99 263 6.0 13.0 0.00 0.00 0.00 45 1011.8
20260902195005 99 264 6.0 14.0 0.00 0.00 0.00 46 1011.6
20260902194703 98 266 7.0 16.0 0.00 0.00 0.00 45 1011.8
20260902194523 99 266 7.0 16.0 0.00 0.00 0.00 45 1011.8
20260902194203 99 261 8.0 17.0 0.00 0.00 0.00 43 1011.8
20260902194003 99 263 7.0 17.0 0.00 0.00 0.00 44 1011.9
20260902193703 99 252 6.0 17.0 0.00 0.00 0.00 44 1011.9
20260902193502 100 254 6.0 17.0 0.00 0.00 0.00 45 1011.9
20260902193203 100 254 5.0 15.0 0.00 0.00 0.00 44 1012.0
20260902193023 100 242 6.0 15.0 0.00 0.00 0.00 43 1011.9
20260902192702 100 246 6.0 15.0 0.00 0.00 0.00 43 1012.0
20260902192506 100 243 5.0 13.0 0.00 0.00 0.00 45 1012.1
20260902192202 100 247 6.0 13.0 0.00 0.00 0.00 44 1012.2
20260902192023 100 257 7.0 21.0 0.00 0.00 0.00 45 1012.1
20260902191702 100 255 7.0 21.0 0.00 0.00 0.00 45 1012.1
20260902191524 100 248 8.0 21.0 0.00 0.00 0.00 45 1012.1
20260902191202 100 244 7.0 21.0 0.00 0.00 0.00 44 1012.2
20260902191023 100 236 6.0 17.0 0.00 0.00 0.00 44 1012.1
20260902190702 100 216 5.0 12.0 0.00 0.00 0.00 45 1012.1
20260902190502 100 221 5.0 12.0 0.00 0.00 0.00 45 1012.1
20260902190202 100 212 5.0 12.0 0.00 0.00 0.00 46 1012.1
20260902190003 100 216 5.0 12.0 0.00 0.00 0.00 44 1012.0
20260902185702 100 221 5.0 12.0 0.00 0.00 0.00 45 1012.1
20260902185502 100 213 5.0 13.0 0.00 0.00 0.00 45 1012.1
20260902185203 100 224 7.0 20.0 0.00 0.00 0.00 44 1012.1
20260902185002 100 226 7.0 20.0 0.00 0.00 0.00 46 1012.1
20260902184702 100 228 6.0 20.0 0.00 0.00 0.00 45 1012.1
20260902184503 100 245 6.0 20.0 0.00 0.00 0.00 46 1012.1
20260902184202 100 248 5.0 18.0 0.00 0.00 0.00 47 1012.1
20260902184003 100 260 5.0 15.0 0.00 0.00 0.00 47 1012.1
20260902183702 100 269 6.0 15.0 0.00 0.00 0.00 48 1012.1
20260902183502 99 271 6.0 15.0 0.00 0.00 0.00 48 1012.2
20260902183202 99 270 6.0 15.0 0.00 0.00 0.00 49 1012.2
20260902183006 99 261 6.0 12.0 0.00 0.00 0.00 49 1012.3
20260902182702 98 269 7.0 14.0 0.00 0.00 0.00 50 1012.3
20260902182503 98 263 6.0 14.0 0.00 0.00 0.00 50 1012.3
20260902182201 98 262 7.0 14.0 0.00 0.00 0.00 50 1012.3
20260902182002 98 262 6.0 14.0 0.00 0.00 0.00 50 1012.3
20260902181701 98 249 5.0 13.0 0.00 0.00 0.00 51 1012.4
20260902181503 98 251 5.0 13.0 0.00 0.00 0.00 50 1012.4
20260902181201 97 250 5.0 12.0 0.00 0.00 0.00 51 1012.5
20260902181003 97 252 5.0 12.0 0.00 0.00 0.00 51 1012.5
20260902180701 96 261 6.0 12.0 0.00 0.00 0.00 53 1012.5
20260902180523 96 268 6.0 14.0 0.00 0.00 0.00 53 1012.6
20260902180201 96 276 8.0 15.0 0.00 0.00 0.00 54 1012.6
20260902180005 96 278 8.0 15.0 0.00 0.00 0.00 54 1012.6
20260902175701 95 284 8.0 15.0 0.00 0.00 0.00 53 1012.6
20260902175502 96 284 9.0 16.0 0.00 0.00 0.00 53 1012.7
20260902175201 96 288 8.0 17.0 0.00 0.00 0.00 53 1012.6
20260902175002 96 289 8.0 17.0 0.00 0.00 0.00 52 1012.6
20260902174701 96 286 9.0 17.0 0.00 0.00 0.00 51 1012.8
20260902174503 97 286 9.0 17.0 0.00 0.00 0.00 50 1012.7
20260902174201 97 282 10.0 17.0 0.00 0.00 0.00 49 1012.7
20260902174024 97 280 10.0 17.0 0.00 0.00 0.00 49 1012.7
20260902173701 98 278 9.0 16.0 0.00 0.00 0.00 49 1012.8
20260902173523 98 273 9.0 16.0 0.00 0.00 0.00 49 1012.9
20260902173201 98 264 8.0 16.0 0.00 0.00 0.00 48 1012.9
20260902173002 98 256 7.0 16.0 0.00 0.00 0.00 49 1013.0
20260902172701 99 249 6.0 16.0 0.00 0.00 0.00 48 1012.9
20260902172524 99 247 6.0 16.0 0.00 0.00 0.00 47 1013.0
20260902172201 99 254 6.0 16.0 0.00 0.00 0.00 48 1013.1
20260902172006 99 257 5.0 16.0 0.00 0.00 0.00 48 1013.2
20260902171701 100 252 5.0 16.0 0.00 0.00 0.00 48 1013.4
20260902171502 100 258 4.0 16.0 0.00 0.00 0.00 49 1013.2
20260902171200 99 243 4.0 11.0 0.00 0.00 0.00 51 1013.1
20260902171002 99 245 4.0 12.0 0.00 0.00 0.00 50 1013.2
20260902170700 99 253 6.0 19.0 0.00 0.00 0.00 49 1013.3
20260902170503 99 254 5.0 19.0 0.00 0.00 0.00 49 1013.2
20260902170200 99 261 6.0 19.0 0.00 0.00 0.00 49 1013.2
20260902170003 99 271 6.0 19.0 0.00 0.00 0.00 49 1013.3
20260902165700 99 270 5.0 11.0 0.00 0.00 0.00 50 1013.3
20260902165505 99 263 5.0 11.0 0.00 0.00 0.00 50 1013.4
20260902165200 99 262 5.0 14.0 0.00 0.00 0.00 50 1013.4
20260902165003 99 254 4.0 14.0 0.00 0.00 0.00 50 1013.4
20260902164700 99 256 4.0 14.0 0.00 0.00 0.00 51 1013.4
20260902164503 98 264 4.0 14.0 0.00 0.00 0.00 51 1013.4
20260902164200 98 260 4.0 10.0 0.00 0.00 0.00 52 1013.5
20260902164023 98 255 4.0 10.0 0.00 0.00 0.00 51 1013.5
20260902163700 98 254 4.0 10.0 0.00 0.00 0.00 52 1013.4
20260902163505 98 251 4.0 10.0 0.00 0.00 0.00 52 1013.4
20260902163200 98 259 3.0 8.0 0.00 0.00 0.00 52 1013.5
20260902163003 98 262 3.0 8.0 0.00 0.00 0.00 51 1013.5
20260902162700 98 261 4.0 12.0 0.00 0.00 0.00 53 1013.6
20260902162503 98 258 4.0 12.0 0.00 0.00 0.00 52 1013.6
20260902162200 98 263 5.0 12.0 0.00 0.00 0.00 52 1013.7
20260902162006 98 262 5.0 12.0 0.00 0.00 0.00 52 1013.7
20260902161700 97 254 4.0 12.0 0.00 0.00 0.00 51 1013.7
20260902161503 97 252 4.0 12.0 0.00 0.00 0.00 51 1013.7
20260902161200 97 242 3.0 9.0 0.00 0.00 0.00 53 1013.7
20260902161002 96 235 3.0 9.0 0.00 0.00 0.00 53 1013.7
20260902160659 96 249 3.0 9.0 0.00 0.00 0.00 56 1013.8
20260902160503 96 246 3.0 9.0 0.00 0.00 0.00 56 1013.8
20260902160159 95 242 3.0 9.0 0.00 0.00 0.00 56 1013.9
20260902160003 95 242 3.0 9.0 0.00 0.00 0.00 58 1013.8
20260902155659 95 220 3.0 9.0 0.00 0.00 0.00 57 1013.7
20260902155502 95 233 3.0 9.0 0.00 0.00 0.00 57 1013.7
20260902155159 94 256 3.0 10.0 0.00 0.00 0.00 60 1013.8
20260902155003 94 259 3.0 10.0 0.00 0.00 0.00 61 1013.8
20260902154659 93 275 6.0 11.0 0.00 0.00 0.00 61 1013.8
20260902154506 93 274 6.0 11.0 0.00 0.00 0.00 60 1013.9
20260902154159 93 276 6.0 11.0 0.00 0.00 0.00 60 1014.0
20260902154003 92 274 6.0 11.0 0.00 0.00 0.00 60 1014.0
20260902153659 92 286 4.0 11.0 0.00 0.00 0.00 60 1014.0
20260902153503 92 286 4.0 11.0 0.00 0.00 0.00 61 1013.9
20260902153159 92 287 4.0 11.0 0.00 0.00 0.00 63 1013.9
20260902153024 92 288 4.0 11.0 0.00 0.00 0.00 64 1013.9
20260902152659 91 278 6.0 12.0 0.00 0.00 0.00 63 1013.9
20260902152502 91 277 6.0 12.0 0.00 0.00 0.00 63 1013.9
20260902152159 91 273 6.0 12.0 0.00 0.00 0.00 64 1013.8
20260902152024 91 274 6.0 12.0 0.00 0.00 0.00 63 1013.9
20260902151659 91 262 4.0 12.0 0.00 0.00 0.00 64 1013.8
20260902151503 91 261 4.0 12.0 0.00 0.00 0.00 64 1013.8
20260902151159 90 257 4.0 9.0 0.00 0.00 0.00 66 1013.9
20260902151006 90 257 4.0 9.0 0.00 0.00 0.00 66 1013.9
20260902150659 90 262 4.0 12.0 0.00 0.00 0.00 66 1013.8
20260902150503 90 265 4.0 12.0 0.00 0.00 0.00 67 1013.8
20260902150159 89 260 4.0 12.0 0.00 0.00 0.00 67 1013.9
20260902150003 89 260 4.0 12.0 0.00 0.00 0.00 67 1013.9
20260902145659 89 267 4.0 11.0 0.00 0.00 0.00 67 1013.8
20260902145502 89 266 4.0 11.0 0.00 0.00 0.00 67 1013.8
20260902145159 89 260 4.0 11.0 0.00 0.00 0.00 69 1013.9
20260902145006 89 263 4.0 11.0 0.00 0.00 0.00 69 1013.9
20260902144658 88 263 4.0 8.0 0.00 0.00 0.00 70 1013.9
20260902144503 88 260 4.0 8.0 0.00 0.00 0.00 70 1013.9
20260902144158 88 280 4.0 10.0 0.00 0.00 0.00 71 1013.9
20260902144003 88 277 4.0 10.0 0.00 0.00 0.00 71 1013.7
20260902143658 88 282 4.0 10.0 0.00 0.00 0.00 71 1013.7
20260902143506 87 286 4.0 10.0 0.00 0.00 0.00 71 1013.8
20260902143158 87 288 3.0 8.0 0.00 0.00 0.00 71 1013.8
20260902143024 87 289 3.0 8.0 0.00 0.00 0.00 73 1013.8
20260902142658 87 272 3.0 11.0 0.00 0.00 0.00 73 1013.9
20260902142502 87 267 3.0 11.0 0.00 0.00 0.00 74 1013.9
20260902142158 86 263 3.0 11.0 0.00 0.00 0.00 75 1013.9
20260902142003 86 262 3.0 11.0 0.00 0.00 0.00 75 1013.8
20260902141658 86 274 4.0 8.0 0.00 0.00 0.00 76 1013.8
20260902141503 86 276 4.0 8.0 0.00 0.00 0.00 76 1013.8
20260902141158 86 276 4.0 8.0 0.00 0.00 0.00 75 1013.8
20260902141003 86 276 4.0 8.0 0.00 0.00 0.00 75 1013.7
20260902140658 86 261 3.0 8.0 0.00 0.00 0.00 76 1013.8
20260902140502 86 254 3.0 8.0 0.00 0.00 0.00 77 1013.9
20260902140158 85 248 3.0 10.0 0.00 0.00 0.00 77 1013.9
20260902140003 85 246 3.0 10.0 0.00 0.00 0.00 77 1013.9
20260902135658 85 256 4.0 10.0 0.00 0.00 0.00 77 1013.9
20260902135503 85 257 4.0 10.0 0.00 0.00 0.00 77 1013.9
20260902135158 85 254 4.0 10.0 0.00 0.00 0.00 79 1013.9
20260902135006 85 258 4.0 10.0 0.00 0.00 0.00 79 1013.9
20260902134658 84 270 6.0 13.0 0.00 0.00 0.00 79 1014.1
20260902134524 84 269 6.0 13.0 0.00 0.00 0.00 79 1014.1
20260902134157 84 272 5.0 13.0 0.00 0.00 0.00 79 1014.1
20260902134003 84 273 5.0 13.0 0.00 0.00 0.00 79 1014.1
20260902133657 84 270 3.0 9.0 0.00 0.00 0.00 80 1014.1
20260902133502 84 275 3.0 9.0 0.00 0.00 0.00 80 1014.1
20260902133157 83 280 4.0 10.0 0.00 0.00 0.00 80 1014.0
20260902133024 83 284 4.0 10.0 0.00 0.00 0.00 80 1014.0
20260902132657 83 285 4.0 10.0 0.00 0.00 0.00 80 1014.0
20260902132502 83 285 4.0 10.0 0.00 0.00 0.00 80 1014.0
20260902132157 83 281 4.0 8.0 0.00 0.00 0.00 80 1013.9
20260902132003 83 273 4.0 8.0 0.00 0.00 0.00 81 1013.9
20260902131657 83 266 4.0 9.0 0.00 0.00 0.00 81 1013.8
20260902131503 83 264 4.0 9.0 0.00 0.00 0.00 81 1013.9
20260902131157 82 265 3.0 9.0 0.00 0.00 0.00 81 1013.7
20260902131003 82 268 3.0 9.0 0.00 0.00 0.00 81 1013.9
20260902130657 82 264 3.0 9.0 0.00 0.00 0.00 82 1013.8
20260902130503 82 265 3.0 7.0 0.00 0.00 0.00 82 1013.7
20260902130157 82 272 4.0 9.0 0.00 0.00 0.00 82 1013.7
20260902130003 82 272 4.0 9.0 0.00 0.00 0.00 82 1013.7
20260902125657 82 271 4.0 9.0 0.00 0.00 0.00 82 1013.7
20260902125503 82 271 4.0 9.0 0.00 0.00 0.00 82 1013.7
20260902125157 81 266 4.0 8.0 0.00 0.00 0.00 83 1013.7
20260902125003 81 265 4.0 8.0 0.00 0.00 0.00 83 1013.7
20260902124657 81 265 3.0 8.0 0.00 0.00 0.00 84 1013.8
20260902124523 81 265 3.0 8.0 0.00 0.00 0.00 84 1013.7
20260902124157 80 260 3.0 8.0 0.00 0.00 0.00 84 1013.7
20260902124003 80 261 3.0 8.0 0.00 0.00 0.00 84 1013.7
20260902123657 80 262 2.0 8.0 0.00 0.00 0.00 85 1013.9
20260902123503 80 263 2.0 8.0 0.00 0.00 0.00 85 1013.7
20260902123157 80 266 3.0 9.0 0.00 0.00 0.00 85 1013.8
20260902123003 80 265 3.0 9.0 0.00 0.00 0.00 86 1013.8
20260902122656 79 267 3.0 9.0 0.00 0.00 0.00 86 1013.9
20260902122504 79 266 3.0 9.0 0.00 0.00 0.00 86 1013.9
20260902122156 79 260 3.0 7.0 0.00 0.00 0.00 87 1013.8
20260902122003 79 262 3.0 7.0 0.00 0.00 0.00 87 1013.8
20260902121656 79 259 2.0 7.0 0.00 0.00 0.00 87 1013.8
20260902121524 79 260 2.0 7.0 0.00 0.00 0.00 87 1013.8
20260902121156 78 258 2.0 6.0 0.00 0.00 0.00 87 1013.7
20260902121002 78 257 2.0 6.0 0.00 0.00 0.00 87 1013.7
20260902120656 78 258 2.0 6.0 0.00 0.00 0.00 87 1013.7
20260902120502 78 258 2.0 6.0 0.00 0.00 0.00 87 1013.7
20260902120156 78 263 2.0 6.0 0.00 0.00 0.00 87 1013.8
20260902120003 78 264 2.0 6.0 0.00 0.00 0.00 87 1013.8
20260902115656 78 267 2.0 8.0 0.00 0.00 0.00 87 1013.7
20260902115503 78 268 2.0 8.0 0.00 0.00 0.00 87 1013.7
20260902115156 78 265 2.0 8.0 0.00 0.00 0.00 87 1013.7
20260902115003 78 265 2.0 8.0 0.00 0.00 0.00 87 1013.6
20260902114656 78 261 1.0 7.0 0.00 0.00 0.00 87 1013.7
20260902114503 78 257 1.0 6.0 0.00 0.00 0.00 87 1013.7
20260902114156 78 258 2.0 6.0 0.00 0.00 0.00 87 1013.6
20260902114003 78 258 2.0 6.0 0.00 0.00 0.00 87 1013.7
20260902113656 78 262 1.0 4.0 0.00 0.00 0.00 87 1013.6
20260902113503 78 265 1.0 4.0 0.00 0.00 0.00 87 1013.5
20260902113155 78 265 2.0 7.0 0.00 0.00 0.00 87 1013.5
20260902113003 78 267 2.0 7.0 0.00 0.00 0.00 87 1013.7
20260902112655 78 264 3.0 10.0 0.00 0.00 0.00 87 1013.8
20260902112503 78 264 3.0 10.0 0.00 0.00 0.00 87 1013.9
20260902112155 78 267 3.0 10.0 0.00 0.00 0.00 87 1013.9
20260902112006 78 268 3.0 10.0 0.00 0.00 0.00 86 1013.9
20260902111655 78 270 3.0 7.0 0.00 0.00 0.00 86 1014.0
20260902111503 78 271 3.0 7.0 0.00 0.00 0.00 86 1014.0
20260902111155 78 275 2.0 7.0 0.00 0.00 0.00 86 1014.0
20260902111003 78 274 2.0 7.0 0.00 0.00 0.00 86 1014.0
20260902110655 78 277 3.0 7.0 0.00 0.00 0.00 86 1013.9
20260902110503 78 275 3.0 7.0 0.00 0.00 0.00 86 1013.9
20260902110155 78 280 3.0 8.0 0.00 0.00 0.00 86 1013.9
20260902110008 78 279 3.0 8.0 0.00 0.00 0.00 86 1013.9
20260902105655 78 279 2.0 8.0 0.00 0.00 0.00 86 1013.8
20260902105503 78 282 2.0 8.0 0.00 0.00 0.00 86 1013.8
20260902105155 78 266 2.0 7.0 0.00 0.00 0.00 86 1013.7
20260902105003 78 267 2.0 7.0 0.00 0.00 0.00 86 1013.7
20260902104655 78 262 2.0 7.0 0.00 0.00 0.00 86 1013.6
20260902104503 78 260 2.0 7.0 0.00 0.00 0.00 86 1013.6
20260902104155 78 261 2.0 6.0 0.00 0.00 0.00 86 1013.6
20260902104003 78 260 2.0 6.0 0.00 0.00 0.00 86 1013.6
20260902103655 78 263 2.0 6.0 0.00 0.00 0.00 86 1013.7
20260902103506 78 263 2.0 6.0 0.00 0.00 0.00 86 1013.7
20260902103154 79 254 1.0 6.0 0.00 0.00 0.00 86 1013.6
20260902103004 79 251 1.0 6.0 0.00 0.00 0.00 87 1013.5
20260902102654 79 231 1.0 3.0 0.00 0.00 0.00 87 1013.6
20260902102503 79 231 1.0 3.0 0.00 0.00 0.00 87 1013.5
20260902102154 79 253 1.0 7.0 0.00 0.00 0.00 87 1013.6
20260902102003 79 259 1.0 7.0 0.00 0.00 0.00 87 1013.5
20260902101654 79 258 1.0 7.0 0.00 0.00 0.00 87 1013.5
20260902101503 79 259 1.0 7.0 0.00 0.00 0.00 87 1013.4
20260902101154 79 242 1.0 4.0 0.00 0.00 0.00 87 1013.4
20260902101004 79 241 1.0 4.0 0.00 0.00 0.00 87 1013.4
20260902100654 79 246 1.0 3.0 0.00 0.00 0.00 87 1013.3
20260902100527 79 248 1.0 3.0 0.00 0.00 0.00 87 1013.3
20260902100154 79 261 1.0 4.0 0.00 0.00 0.00 86 1013.5
20260902100003 79 263 1.0 4.0 0.00 0.00 0.00 86 1013.5
20260902095654 79 274 0.0 4.0 0.00 0.00 0.00 86 1013.4
20260902095503 79 286 0.0 2.0 0.00 0.00 0.00 86 1013.4
20260902095154 79 273 1.0 6.0 0.00 0.00 0.00 86 1013.4
20260902095004 79 270 1.0 7.0 0.00 0.00 0.00 86 1013.4
20260902094654 79 270 3.0 9.0 0.00 0.00 0.00 86 1013.4
20260902094503 79 268 3.0 9.0 0.00 0.00 0.00 86 1013.4
20260902094154 79 265 3.0 9.0 0.00 0.00 0.00 87 1013.4
20260902094024 79 265 3.0 9.0 0.00 0.00 0.00 87 1013.4
20260902093654 79 258 1.0 8.0 0.00 0.00 0.00 87 1013.4
20260902093503 79 257 1.0 8.0 0.00 0.00 0.00 87 1013.4
20260902093154 79 262 1.0 4.0 0.00 0.00 0.00 87 1013.4
20260902093004 79 262 1.0 4.0 0.00 0.00 0.00 87 1013.4
20260902092654 79 263 2.0 9.0 0.00 0.00 0.00 87 1013.5
20260902092503 79 263 2.0 9.0 0.00 0.00 0.00 87 1013.5
20260902092154 78 261 2.0 9.0 0.00 0.00 0.00 87 1013.5
20260902092003 78 259 2.0 9.0 0.00 0.00 0.00 87 1013.5
20260902091654 78 252 1.0 6.0 0.00 0.00 0.00 87 1013.5
20260902091524 78 251 1.0 6.0 0.00 0.00 0.00 87 1013.5
20260902091153 78 232 0.0 2.0 0.00 0.00 0.00 86 1013.4
20260902091003 78 232 0.0 2.0 0.00 0.00 0.00 87 1013.4
20260902090653 78 229 1.0 3.0 0.00 0.00 0.00 86 1013.4
20260902090503 78 229 1.0 3.0 0.00 0.00 0.00 86 1013.4
20260902090153 78 231 1.0 3.0 0.00 0.00 0.00 86 1013.4
20260902090005 78 231 1.0 3.0 0.00 0.00 0.00 86 1013.3
20260902085653 78 242 1.0 4.0 0.00 0.00 0.00 86 1013.3
20260902085503 78 243 1.0 4.0 0.00 0.00 0.00 86 1013.3
20260902085153 78 251 1.0 4.0 0.00 0.00 0.00 86 1013.3
20260902085003 78 251 1.0 4.0 0.00 0.00 0.00 86 1013.3
20260902084653 78 252 1.0 4.0 0.00 0.00 0.00 86 1013.4
20260902084503 78 252 1.0 4.0 0.00 0.00 0.00 86 1013.4
20260902084153 78 252 1.0 4.0 0.00 0.00 0.00 86 1013.3
20260902084025 78 252 1.0 4.0 0.00 0.00 0.00 86 1013.4
20260902083653 78 252 1.0 3.0 0.00 0.00 0.00 85 1013.4
20260902083503 78 252 1.0 3.0 0.00 0.00 0.00 85 1013.4
20260902083153 78 251 1.0 3.0 0.00 0.00 0.00 85 1013.4
20260902083003 78 252 1.0 4.0 0.00 0.00 0.00 85 1013.3
20260902082653 78 249 1.0 6.0 0.00 0.00 0.00 85 1013.4
20260902082525 78 248 1.0 6.0 0.00 0.00 0.00 85 1013.4
20260902082153 78 234 1.0 6.0 0.00 0.00 0.00 85 1013.5
20260902082006 78 228 1.0 6.0 0.00 0.00 0.00 85 1013.5
20260902081652 79 201 1.0 3.0 0.00 0.00 0.00 85 1013.3
20260902081503 79 194 1.0 3.0 0.00 0.00 0.00 85 1013.3
20260902081152 79 192 1.0 4.0 0.00 0.00 0.00 85 1013.2
20260902081025 79 191 1.0 4.0 0.00 0.00 0.00 85 1013.2
20260902080652 79 203 1.0 4.0 0.00 0.00 0.00 85 1013.1
20260902080525 79 204 1.0 4.0 0.00 0.00 0.00 85 1013.1
20260902080152 79 230 1.0 3.0 0.00 0.00 0.00 85 1013.2
20260902080003 79 237 1.0 3.0 0.00 0.00 0.00 85 1013.1
20260902075652 79 250 0.0 3.0 0.00 0.00 0.00 84 1013.1
20260902075504 79 250 0.0 3.0 0.00 0.00 0.00 84 1013.1
20260902075152 79 250 0.0 2.0 0.00 0.00 0.00 84 1013.3
20260902075004 79 250 0.0 2.0 0.00 0.00 0.00 84 1013.3
20260902074652 79 250 0.0 1.0 0.00 0.00 0.00 84 1013.3
20260902074503 79 250 0.0 1.0 0.00 0.00 0.00 84 1013.3
20260902074152 79 250 0.0 1.0 0.00 0.00 0.00 84 1013.3
20260902074006 79 250 0.0 1.0 0.00 0.00 0.00 84 1013.3
20260902073652 79 250 0.0 1.0 0.00 0.00 0.00 83 1013.4
20260902073503 79 250 0.0 1.0 0.00 0.00 0.00 83 1013.4
20260902073152 79 250 0.0 2.0 0.00 0.00 0.00 83 1013.3
20260902073004 79 250 0.0 2.0 0.00 0.00 0.00 83 1013.3
20260902072652 79 250 0.0 2.0 0.00 0.00 0.00 83 1013.3
20260902072503 79 250 0.0 2.0 0.00 0.00 0.00 83 1013.3
20260902072152 79 250 0.0 2.0 0.00 0.00 0.00 83 1013.2
20260902072004 79 250 0.0 2.0 0.00 0.00 0.00 83 1013.2
20260902071652 79 250 0.0 3.0 0.00 0.00 0.00 83 1013.3
20260902071503 79 250 0.0 3.0 0.00 0.00 0.00 83 1013.2
20260902071151 79 250 0.0 3.0 0.00 0.00 0.00 83 1013.2
20260902071003 79 250 0.0 3.0 0.00 0.00 0.00 83 1013.3
20260902070651 79 250 0.0 2.0 0.00 0.00 0.00 83 1013.3
20260902070504 79 250 0.0 2.0 0.00 0.00 0.00 83 1013.3
20260902070151 79 251 0.0 2.0 0.00 0.00 0.00 83 1013.3
20260902070005 79 251 0.0 2.0 0.00 0.00 0.00 83 1013.3
20260902065651 79 258 0.0 2.0 0.00 0.00 0.00 83 1013.2
20260902065524 79 258 0.0 2.0 0.00 0.00 0.00 83 1013.1
20260902065151 79 262 0.0 2.0 0.00 0.00 0.00 83 1013.2
20260902065003 79 262 0.0 2.0 0.00 0.00 0.00 83 1013.2
20260902064651 79 262 0.0 1.0 0.00 0.00 0.00 83 1013.3
20260902064504 79 262 0.0 2.0 0.00 0.00 0.00 83 1013.3
20260902064151 79 262 0.0 2.0 0.00 0.00 0.00 83 1013.4
20260902064025 79 262 0.0 2.0 0.00 0.00 0.00 83 1013.3
20260902063651 79 262 0.0 2.0 0.00 0.00 0.00 83 1013.3
20260902063506 79 262 0.0 1.0 0.00 0.00 0.00 83 1013.4
20260902063151 79 0 0.0 0.0 0.00 0.00 0.00 83 1013.4
20260902063004 79 0 0.0 0.0 0.00 0.00 0.00 83 1013.5
20260902062651 79 0 0.0 0.0 0.00 0.00 0.00 83 1013.6
20260902062525 79 0 0.0 0.0 0.00 0.00 0.00 83 1013.6
20260902062151 79 0 0.0 0.0 0.00 0.00 0.00 83 1013.7
20260902062024 79 0 0.0 0.0 0.00 0.00 0.00 83 1013.7
20260902061651 79 0 0.0 0.0 0.00 0.00 0.00 83 1013.7
20260902061504 79 0 0.0 0.0 0.00 0.00 0.00 83 1013.7
20260902061151 79 0 0.0 0.0 0.00 0.00 0.00 83 1013.8
20260902061004 79 0 0.0 0.0 0.00 0.00 0.00 83 1013.8
20260902060651 79 0 0.0 0.0 0.00 0.00 0.00 83 1013.9
20260902060504 79 0 0.0 0.0 0.00 0.00 0.00 83 1013.9
20260902060150 79 0 0.0 0.0 0.00 0.00 0.00 83 1013.9
20260902060006 79 0 0.0 0.0 0.00 0.00 0.00 83 1013.9
20260902055650 79 0 0.0 0.0 0.00 0.00 0.00 83 1014.0
20260902055504 79 0 0.0 0.0 0.00 0.00 0.00 83 1014.0
20260902055150 79 0 0.0 0.0 0.00 0.00 0.00 83 1014.1
20260902055004 79 0 0.0 0.0 0.00 0.00 0.00 83 1014.1
20260902054650 79 0 0.0 0.0 0.00 0.00 0.00 83 1014.1
20260902054503 79 0 0.0 0.0 0.00 0.00 0.00 83 1014.1
20260902054150 79 0 0.0 0.0 0.00 0.00 0.00 83 1014.1
20260902054004 79 0 0.0 0.0 0.00 0.00 0.00 83 1014.0
20260902053650 79 0 0.0 0.0 0.00 0.00 0.00 83 1014.0
20260902053504 79 0 0.0 0.0 0.00 0.00 0.00 83 1014.1
20260902053150 79 0 0.0 0.0 0.00 0.00 0.00 83 1014.1
20260902053003 79 0 0.0 0.0 0.00 0.00 0.00 83 1014.1
20260902052623 79 0 0.0 0.0 0.00 0.00 0.00 83 1014.1
20260902052503 79 0 0.0 0.0 0.00 0.00 0.00 83 1014.1
20260902052122 79 0 0.0 0.0 0.00 0.00 0.00 83 1014.1
20260902052024 79 0 0.0 0.0 0.00 0.00 0.00 83 1014.1
20260902051622 79 0 0.0 0.0 0.00 0.00 0.00 83 1014.2
20260902051503 79 0 0.0 0.0 0.00 0.00 0.00 83 1014.2
20260902051122 79 0 0.0 0.0 0.00 0.00 0.00 83 1014.2
20260902051003 79 0 0.0 0.0 0.00 0.00 0.00 83 1014.2
20260902050622 79 0 0.0 0.0 0.00 0.00 0.00 83 1014.2
20260902050503 79 0 0.0 0.0 0.00 0.00 0.00 83 1014.2
20260902050122 79 0 0.0 0.0 0.00 0.00 0.00 83 1014.2
20260902050008 79 0 0.0 0.0 0.00 0.00 0.00 83 1014.2
20260902045622 79 0 0.0 0.0 0.00 0.00 0.00 83 1014.1
20260902045503 79 0 0.0 0.0 0.00 0.00 0.00 82 1014.1
20260902045122 79 0 0.0 0.0 0.00 0.00 0.00 82 1014.1
20260902045003 79 0 0.0 0.0 0.00 0.00 0.00 82 1014.1
20260902044622 79 0 0.0 0.0 0.00 0.00 0.00 82 1014.1
20260902044503 79 0 0.0 0.0 0.00 0.00 0.00 82 1014.2
20260902044122 79 0 0.0 0.0 0.00 0.00 0.00 82 1014.2
20260902044003 79 0 0.0 0.0 0.00 0.00 0.00 82 1014.2
20260902043622 79 0 0.0 0.0 0.00 0.00 0.00 82 1014.1
20260902043523 79 0 0.0 0.0 0.00 0.00 0.00 82 1014.0
20260902043122 80 0 0.0 0.0 0.00 0.00 0.00 81 1014.1
20260902043003 80 0 0.0 0.0 0.00 0.00 0.00 81 1014.1
20260902042622 80 0 0.0 0.0 0.00 0.00 0.00 81 1014.1
20260902042524 80 0 0.0 0.0 0.00 0.00 0.00 81 1014.1
20260902042122 80 0 0.0 0.0 0.00 0.00 0.00 81 1014.0
20260902042003 80 0 0.0 0.0 0.00 0.00 0.00 80 1014.0
20260902041622 80 0 0.0 0.0 0.00 0.00 0.00 80 1014.0
20260902041504 80 0 0.0 0.0 0.00 0.00 0.00 80 1014.0
20260902041121 80 0 0.0 0.0 0.00 0.00 0.00 80 1014.0
20260902041003 80 0 0.0 0.0 0.00 0.00 0.00 80 1014.0
20260902040621 80 0 0.0 0.0 0.00 0.00 0.00 80 1013.9
20260902040503 80 0 0.0 0.0 0.00 0.00 0.00 80 1013.9
20260902040121 80 0 0.0 0.0 0.00 0.00 0.00 80 1014.0
20260902040003 80 0 0.0 0.0 0.00 0.00 0.00 80 1014.0
20260902035621 80 0 0.0 0.0 0.00 0.00 0.00 79 1014.0
20260902035503 80 0 0.0 0.0 0.00 0.00 0.00 79 1014.0
20260902035121 81 0 0.0 0.0 0.00 0.00 0.00 79 1014.0
20260902035003 81 0 0.0 0.0 0.00 0.00 0.00 79 1014.0
20260902034621 81 0 0.0 0.0 0.00 0.00 0.00 79 1014.0
20260902034525 81 0 0.0 0.0 0.00 0.00 0.00 79 1014.0
20260902034121 81 0 0.0 0.0 0.00 0.00 0.00 79 1013.9
20260902034003 81 0 0.0 0.0 0.00 0.00 0.00 78 1013.9
20260902033621 81 0 0.0 0.0 0.00 0.00 0.00 78 1013.8
20260902033506 81 0 0.0 0.0 0.00 0.00 0.00 78 1013.8
20260902033121 81 0 0.0 0.0 0.00 0.00 0.00 78 1013.6
20260902033003 81 0 0.0 0.0 0.00 0.00 0.00 78 1013.6
20260902032621 81 0 0.0 0.0 0.00 0.00 0.00 78 1013.7
20260902032504 81 0 0.0 0.0 0.00 0.00 0.00 78 1013.7
20260902032121 82 0 0.0 0.0 0.00 0.00 0.00 78 1013.6
20260902032006 82 0 0.0 0.0 0.00 0.00 0.00 78 1013.6
20260902031621 82 0 0.0 0.0 0.00 0.00 0.00 77 1013.6
20260902031503 82 0 0.0 0.0 0.00 0.00 0.00 77 1013.6
20260902031120 82 0 0.0 0.0 0.00 0.00 0.00 77 1013.6
20260902031025 82 0 0.0 0.0 0.00 0.00 0.00 77 1013.6
20260902030620 82 0 0.0 0.0 0.00 0.00 0.00 77 1013.5
20260902030504 82 0 0.0 0.0 0.00 0.00 0.00 77 1013.5
20260902030120 82 0 0.0 0.0 0.00 0.00 0.00 77 1013.5
20260902030024 82 0 0.0 0.0 0.00 0.00 0.00 77 1013.6
20260902025620 82 0 0.0 0.0 0.00 0.00 0.00 77 1013.6
20260902025503 82 0 0.0 0.0 0.00 0.00 0.00 76 1013.6
20260902025120 82 0 0.0 0.0 0.00 0.00 0.00 76 1013.5
20260902025003 83 0 0.0 0.0 0.00 0.00 0.00 76 1013.5
20260902024620 83 0 0.0 0.0 0.00 0.00 0.00 76 1013.5
20260902024504 83 0 0.0 0.0 0.00 0.00 0.00 76 1013.6
20260902024120 83 0 0.0 0.0 0.00 0.00 0.00 76 1013.6
20260902024003 83 0 0.0 0.0 0.00 0.00 0.00 76 1013.5
20260902023620 83 0 0.0 0.0 0.00 0.00 0.00 76 1013.5
20260902023527 83 0 0.0 0.0 0.00 0.00 0.00 75 1013.6
20260902023120 83 0 0.0 0.0 0.00 0.00 0.00 75 1013.4
20260902023003 83 262 0.0 1.0 0.00 0.00 0.00 75 1013.4
20260902022620 84 262 0.0 3.0 0.00 0.00 0.00 75 1013.5
20260902022525 84 262 0.0 3.0 0.00 0.00 0.00 75 1013.5
20260902022120 84 263 1.0 3.0 0.00 0.00 0.00 75 1013.5
20260902022027 84 263 1.0 4.0 0.00 0.00 0.00 75 1013.5
20260902021620 84 260 2.0 7.0 0.00 0.00 0.00 75 1013.5
20260902021503 84 262 2.0 7.0 0.00 0.00 0.00 74 1013.5
20260902021120 84 264 3.0 7.0 0.00 0.00 0.00 74 1013.5
20260902021003 84 265 3.0 7.0 0.00 0.00 0.00 74 1013.5
20260902020620 84 277 3.0 7.0 0.00 0.00 0.00 74 1013.4
20260902020503 84 279 3.0 7.0 0.00 0.00 0.00 74 1013.4
20260902020120 84 280 3.0 7.0 0.00 0.00 0.00 74 1013.5
20260902020004 84 279 3.0 7.0 0.00 0.00 0.00 74 1013.6
20260902015620 84 273 3.0 7.0 0.00 0.00 0.00 74 1013.6
20260902015504 84 271 3.0 7.0 0.00 0.00 0.00 74 1013.6
20260902015120 84 279 2.0 6.0 0.00 0.00 0.00 74 1013.6
20260902015003 84 284 2.0 6.0 0.00 0.00 0.00 74 1013.5
20260902014619 85 281 3.0 7.0 0.00 0.00 0.00 74 1013.5
20260902014524 85 278 3.0 7.0 0.00 0.00 0.00 74 1013.5
20260902014119 85 274 4.0 9.0 0.00 0.00 0.00 73 1013.5
20260902014004 85 272 4.0 10.0 0.00 0.00 0.00 73 1013.5
20260902013619 85 266 3.0 10.0 0.00 0.00 0.00 73 1013.6
20260902013506 85 268 3.0 10.0 0.00 0.00 0.00 73 1013.6
20260902013120 85 264 3.0 10.0 0.00 0.00 0.00 73 1013.6
20260902013003 85 265 3.0 9.0 0.00 0.00 0.00 73 1013.6
20260902012619 85 275 3.0 9.0 0.00 0.00 0.00 73 1013.6
20260902012504 85 274 3.0 9.0 0.00 0.00 0.00 73 1013.6
20260902012119 85 274 4.0 12.0 0.00 0.00 0.00 73 1013.5
20260902012003 85 272 4.0 12.0 0.00 0.00 0.00 73 1013.5
20260902011619 85 264 5.0 12.0 0.00 0.00 0.00 72 1013.5
20260902011503 85 263 5.0 12.0 0.00 0.00 0.00 72 1013.4
20260902011119 85 260 5.0 12.0 0.00 0.00 0.00 72 1013.5
20260902011003 85 258 5.0 12.0 0.00 0.00 0.00 72 1013.5
20260902010619 85 264 4.0 11.0 0.00 0.00 0.00 72 1013.4
20260902010504 85 267 4.0 10.0 0.00 0.00 0.00 72 1013.4
20260902010119 85 269 4.0 10.0 0.00 0.00 0.00 72 1013.4
20260902010003 85 272 4.0 10.0 0.00 0.00 0.00 72 1013.4
20260902005619 85 269 4.0 11.0 0.00 0.00 0.00 72 1013.2
20260902005503 85 269 4.0 11.0 0.00 0.00 0.00 72 1013.2
20260902005119 86 265 4.0 11.0 0.00 0.00 0.00 73 1013.3
20260902005004 86 263 4.0 11.0 0.00 0.00 0.00 73 1013.3
20260902004619 86 264 3.0 10.0 0.00 0.00 0.00 73 1013.1
20260902004524 86 261 3.0 10.0 0.00 0.00 0.00 73 1013.1